OpenBCM V1.13 (Linux)

Packet Radio Mailbox

DB0FHN

[JN59NK Nuernberg]

 Login: GUEST





  
LU9DCE > KEP      20.05.19 19:34l 244 Lines 12012 Bytes #999 (0) @ WW
BID : 24994_LU9DCE
Read: DF7EAV GUEST DK3UZ
Subj: TLE 20 05
Path: DB0FHN<DB0BLO<DB0ERF<OK0NAG<IK6ZDE<IW0QNL<JH4XSY<JE7YGF<GB7CIP<N3HYM<
      LU9DCE
Sent: 190520/1801Z 24994@LU9DCE.TOR.BA.ARG.SOAM LinBPQ6.0.18

            __    _  _  ___  ____   ___  ____    ____  ____  ____
           (  )  / )( \/ _ \(    \ / __)(  __)  (  _ \(  _ \/ ___)
           / (_/\) \/ (\__  )) D (( (__  ) _)    ) _ ( ) _ (\___ \
           \____/\____/(___/(____/ \___)(____)  (____/(____/(____/
               ESTACION DE PACKET RADIO - BUENOS AIRES (GF05OM)
                   BOLETINES INFORMATIVOS PROGRAMADOS (BIP)
              28.125 USB @ 300 BAUD --- HELLOCODELINUX@GMAIL.COM

+----------------------------------------------------------------------------+
OSCAR 7
1  7530U 74089B   19140.18073219 -.00000041  00000-0  21407-4 0  9993
2  7530 101.7416 108.1473 0012538  45.3329  24.8237 12.53638135 36828
OSCAR 11 (UoSAT 2)
1 14781U 84021B   19139.67675090  .00000046  00000-0  11739-4 0  9994
2 14781  97.6130 165.8111 0009874  63.5685 296.6541 14.83084752894313
OSCAR 19 (LUSAT)
1 20442U 90005G   19140.06238955  .00000002  00000-0  16980-4 0  9999
2 20442  98.6469  82.1152 0010752 233.8205 126.1984 14.32925066532136
EYESAT A
1 22825U 93061C   19140.18388522 -.00000020  00000-0  10252-4 0  9997
2 22825  98.9021 128.1499 0009547  85.5461 274.6811 14.30058548337738
ITAMSAT
1 22826U 93061D   19140.12247703 -.00000015  00000-0  12135-4 0  9993
2 22826  98.8961 128.0823 0010041  75.8818 284.3479 14.30391984337923
RADIO ROSTO
1 23439U 94085A   19139.80479682 -.00000028  00000-0  42438-3 0  9999
2 23439  64.8134 164.4569 0146572 119.0597 242.5097 11.27567997  4682
JAS 2
1 24278U 96046B   19139.97199657 -.00000030  00000-0  84788-5 0  9998
2 24278  98.5330 297.4195 0349636 317.2291  40.2119 13.53091183123788
TECHSAT 1B
1 25397U 98043D   19139.89066447 -.00000020  00000-0  10531-4 0  9994
2 25397  98.6871  80.3990 0002315 106.7514 253.3918 14.23665324 83638
ISS (ZARYA)
1 25544U 98067A   19140.55136867  .00000916  00000-0  22055-4 0  9990
2 25544  51.6412 138.4836 0001687  10.8499  86.8394 15.52691486170965
PCSAT
1 26931U 01043C   19140.27648868 -.00000044  00000-0  14849-4 0  9992
2 26931  67.0517  79.5846 0006362 279.9342  80.1041 14.30542034920765
SAUDISAT 1C
1 27607U 02058C   19140.47124330 -.00000027  00000-0  17102-4 0  9991
2 27607  64.5532 138.9335 0082148 262.1077  97.0695 14.75546274882727
CUTE-1
1 27844U 03031E   19139.89308552  .00000043  00000-0  38893-4 0  9997
2 27844  98.6846 148.5515 0010995 114.6895 245.5429 14.22176636824053
CUBESAT XI 4
1 27848U 03031J   19139.87673801  .00000031  00000-0  33741-4 0  9995
2 27848  98.6923 149.0289 0010768 124.9776 235.2414 14.21771817823901
MOZHAYETS 4
1 27939U 03042A   19140.50999043  .00000114  00000-0  28973-4 0  9992
2 27939  98.0352 276.9021 0013442 154.7615 205.4252 14.66779263836265
CUBESAT XI 5
1 28895U 05043F   19139.63395568  .00000100  00000-0  28066-4 0  9999
2 28895  97.9546 283.4033 0018258  87.3805 272.9487 14.63660591723093
CUTE-1.7+APD II
1 32785U 08021C   19140.17058597  .00000180  00000-0  25009-4 0  9992
2 32785  97.5494 141.2781 0013241   8.1667 351.9764 14.88298058599290
DELFI C3
1 32789U 08021G   19140.13536949  .00001038  00000-0  73533-4 0  9992
2 32789  97.4668 190.6900 0011193 219.5534 140.4878 15.06891544602519
SEEDS
1 32791U 08021J   19139.97017653  .00000377  00000-0  43690-4 0  9997
2 32791  97.5284 147.0291 0012816 343.9552  16.1259 14.90802781599683
YUBELEINY
1 32953U 08025A   19140.50936706  .00000020  00000-0  75656-4 0  9993
2 32953  82.5020 162.9129 0018878 188.8954 171.1799 12.43089490498686
PRISM (HITOMI)
1 33493U 09002B   19139.84389486  .00000602  00000-0  58365-4 0  9995
2 33493  98.1222  59.6659 0013797 283.5417  76.4266 14.96621734560684
KKS-1 (KISEKI)
1 33499U 09002H   19140.51339407  .00000092  00000-0  21555-4 0  9999
2 33499  98.3520 338.2880 0008087 304.4703  55.5740 14.75434489554923
SWISSCUBE
1 35932U 09051B   19139.98362601  .00000108  00000-0  35535-4 0  9999
2 35932  98.5851 305.0921 0006428 253.6134 106.4356 14.56275969512450
BEESAT
1 35933U 09051C   19139.43879692  .00000097  00000-0  32800-4 0  9992
2 35933  98.5879 306.2753 0004581 271.3506  88.7166 14.56366114512482
ITUPSAT 1
1 35935U 09051E   19140.44145080  .00000075  00000-0  28349-4 0  9993
2 35935  98.5990 307.5475 0006908 264.3167  95.7242 14.55527619512383
XIWANG-1 (HOPE-1)
1 36122U 09072B   19140.09392939 -.00000026  00000-0  42667-4 0  9999
2 36122 100.0732 143.8663 0008184  57.2572 302.9333 13.16349669452988
TISAT 1
1 36799U 10035E   19139.95437008  .00000383  00000-0  44803-4 0  9999
2 36799  98.1520 291.1279 0012388 177.0402 183.0891 14.91083473480333
JUGNU
1 37839U 11058B   19140.43870781  .00000310  00000-0  23300-4 0  9994
2 37839  19.9598 152.1681 0018947   5.3328 145.5252 14.12650605393118
SRMSAT
1 37841U 11058D   19140.51146437  .00000305  00000-0  22165-4 0  9992
2 37841  19.9708 207.9011 0011660 236.0224 248.8268 14.10631857392561
M-CUBED/EXP-1 PRIME
1 37855U 11061F   19140.55458611  .00001178  00000-0  66742-4 0  9993
2 37855 101.7184  21.1952 0173754 163.1526 197.5558 15.05349978412393
HORYU 2
1 38340U 12025D   19139.87715104  .00000157  00000-0  30998-4 0  9990
2 38340  98.3316 177.5690 0010775 213.2493 146.8039 14.75707915376765
STRAND 1
1 39090U 13009E   19140.01469207  .00000018  00000-0  21434-4 0  9995
2 39090  98.4913 346.4675 0009664  24.4061 335.7581 14.35083470326136
SOMP
1 39134U 13015E   19140.08392549  .00001043  00000-0  57136-4 0  9999
2 39134  64.8620 116.3554 0028248 309.0466  50.8147 15.20086351336092
BEESAT 3
1 39135U 13015F   19140.08544381  .00000910  00000-0  55060-4 0  9999
2 39135  64.8656 134.2359 0016693 324.5047  35.4967 15.17401885335752
BEESAT 2
1 39136U 13015G   19140.37509236  .00000729  00000-0  46752-4 0  9998
2 39136  64.8679 137.0346 0017413 308.3017  51.6542 15.16842366335721
CUBEBUG 1
1 39153U 13018D   19140.22936052  .00000159  00000-0  27712-4 0  9996
2 39153  97.9762 238.5234 0015584 296.0156  63.9450 14.80556093327451
ZACUBE
1 39417U 13066B   19139.84420101  .00000200  00000-0  31335-4 0  9994
2 39417  97.5638 155.0218 0060213 130.8955 229.7496 14.81101559296628
TRITON 1
1 39427U 13066M   19139.86983429  .00000141  00000-0  30758-4 0  9996
2 39427  97.6740 119.0945 0112283 260.9052  97.9435 14.67827401293966
GOMX 1
1 39430U 13066Q   19140.48056908  .00000291  00000-0  61756-4 0  9991
2 39430  97.7442  98.9602 0151375 346.9658  12.7640 14.59241374292341
HUMSAT D
1 39433U 13066T   19140.10842335  .00000235  00000-0  28194-4 0  9997
2 39433  97.5562 188.8184 0031790  41.9918 318.3730 14.92167524298665
CUBEBUG 2
1 39440U 13066AA  19140.05499829  .00000158  00000-0  28990-4 0  9993
2 39440  97.6019 140.2435 0080253 180.1295 179.9908 14.75840554295605
FUNCUBE 1
1 39444U 13066AE  19139.86122460  .00000234  00000-0  34925-4 0  9998
2 39444  97.5620 156.9538 0059469 124.9583 235.7236 14.81917349295514
UWE-3
1 39446U 13066AG  19139.97459666  .00000183  00000-0  30789-4 0  9990
2 39446  97.5817 147.1540 0070699 155.8595 204.5957 14.78374777294873
SPROUT
1 39770U 14029E   19140.36635288  .00000711  00000-0  84870-4 0  9998
2 39770  97.8813 243.8548 0008968 173.0591 187.0737 14.87306003270470
UNISAT 6
1 40012U 14033C   19139.87403099  .00000152  00000-0  30135-4 0  9995
2 40012  97.7617   7.7640 0057907 192.6800 167.2956 14.73965421264295
DUCHIFAT 1
1 40021U 14033M   19139.73939536  .00000433  00000-0  50045-4 0  9994
2 40021  97.9240  64.2349 0013624 143.3066 216.9087 14.90605273267080
QB50P1
1 40025U 14033R   19139.72749927  .00000262  00000-0  33854-4 0  9999
2 40025  97.9067  59.4592 0012987 152.0000 208.1918 14.88925600266860
CHUBUSAT 1
1 40300U 14070C   19140.46618149  .00000762  00000-0  36186-4 0  9996
2 40300  97.3259 215.3813 0019704 154.6134 270.3844 15.22047838251570
NUDT-PHONESAT
1 40900U 15049B   19140.40329654  .00002517  00000-0  11096-3 0  9995
2 40900  97.4369 150.0277 0011096 290.5004 176.1325 15.22681638203206
ZDPS 2A
1 40901U 15049C   19140.53988894  .00001208  00000-0  63222-4 0  9992
2 40901  97.4591 146.7865 0012305 310.9078 166.5354 15.17681476202816
ZDPS 2B
1 40902U 15049D   19140.50172047  .00001317  00000-0  69004-4 0  9990
2 40902  97.4533 144.2945 0012258 307.4389 203.8778 15.17478901202786
XW-2A
1 40903U 15049E   19140.57889757  .00001954  00000-0  48199-4 0  9990
2 40903  97.3405 183.1749 0011771 247.7273 237.8773 15.41745285205767
KAITUO 1A
1 40904U 15049F   19140.49121817  .00000657  00000-0  38297-4 0  9995
2 40904  97.4662 143.0015 0013414 314.9411 196.2560 15.15339453202577
OBJECT G
1 40905U 15049G   19140.54432995  .00000683  00000-0  40850-4 0  9991
2 40905  97.4697 140.6438 0014521 308.6031 166.6626 15.14270000202469
XW-2C
1 40906U 15049H   19140.49812403  .00000698  00000-0  40147-4 0  9997
2 40906  97.4668 143.0623 0013519 305.5489 205.7559 15.15639052202579
XW-2D
1 40907U 15049J   19140.53970672  .00001055  00000-0  58611-4 0  9999
2 40907  97.4651 142.7805 0012724 302.9599 177.6728 15.15826537202593
LILACSAT 2
1 40908U 15049K   19140.45504561  .00000302  00000-0  20313-4 0  9993
2 40908  97.4767 141.5976 0014612 308.2004 208.2996 15.13779794202381
XW-2F
1 40910U 15049M   19140.52862759  .00001356  00000-0  71425-4 0  9990
2 40910  97.4615 144.6930 0013050 294.5045 184.3065 15.17239888202590
XW-2B
1 40911U 15049N   19140.37054126  .00000601  00000-0  34955-4 0  9994
2 40911  97.4670 143.2532 0012826 304.8347 162.4070 15.15753757202468
KAITUO 1B
1 40912U 15049P   19140.40401791  .00001479  00000-0  72721-4 0  9990
2 40912  97.4493 148.1389 0013142 276.5670 189.7800 15.19542784202869
TIANWANG 1C (TW-1C)
1 40926U 15051B   19140.51117563  .00011381  00000-0  16976-3 0  9993
2 40926  97.1387 186.7292 0010049 115.2436 354.5031 15.55175414205623
